#timestamp,LO_Frequency,Hit 
1503734415.4,286046995.4,N
1503734435.2,286046997.6,N
1503734455.0,286046995.1,N
1503734455.9,286046995.1,N
1503734475.8,286046999.6,N
1503734495.6,286046999.0,N
1503734515.4,286046997.8,N
1503734535.3,286046996.6,N
1503734555.1,286047000.8,N
1503734575.8,286047000.1,N
1503734595.7,286047004.8,N
1503734615.5,286047006.9,N
1503734635.3,286047008.5,N
1503734655.2,286047008.5,N
1503734675.9,286047008.4,N
1503734695.7,286047006.1,N
1503734715.5,286047005.0,N
1503734735.4,286047003.0,N
1503734755.2,286047006.0,N
1503734775.0,286047002.1,N
1503734775.9,286047002.1,N
1503734795.8,286047000.2,N
1503734815.6,286046998.9,N
1503734835.4,286047000.8,N
1503734855.3,286046999.1,N
1503734875.1,286046999.1,N
1503734895.8,286046997.7,N
1503734915.7,286046997.9,N
1503734935.5,286046996.5,N
1503734955.3,286046999.1,N
1503734975.2,286046998.6,N
1503734995.9,286047000.0,N
1503735015.7,286047001.5,N
1503735035.6,286047002.5,N
1503735055.4,286046999.7,N
1503735075.2,286047000.4,N
1503735095.0,286046998.9,N
1503735095.9,286046998.9,N
1503735115.8,286047002.1,N
1503735135.6,286047000.7,N
1503735155.4,286047001.0,N
1503735175.3,286047000.7,N
1503735195.1,286046998.6,N
1503735215.8,286046999.9,N
1503735235.7,286047001.4,N
1503735255.5,286047001.9,N
1503735275.3,286046999.8,N
1503735295.2,286047000.0,N
1503735315.9,286046999.0,N
1503735335.7,286046997.2,N
1503735355.6,286046998.0,N
1503735375.4,286046999.1,N
1503735395.2,286046998.7,N
1503735415.7,286046999.4,N
1503735435.5,286046993.3,P
1503735455.4,286046994.6,N
1503735475.2,286046994.4,N
1503735495.0,286046989.4,P
1503735496.0,286046989.4,P
1503735515.8,286046993.0,N
1503735535.6,286046989.2,P
1503735555.5,286046997.1,N
1503735575.3,286046995.3,N
1503735595.1,286046996.3,N
1503735615.8,286046995.1,N
1503735635.7,286046993.6,N
1503735655.5,286046992.4,N
1503735675.4,286046990.8,P
1503735695.2,286046995.1,P
1503735715.0,286046997.6,N
1503735715.9,286046997.6,N
1503735735.8,286046994.9,N
1503735755.6,286046994.5,N
1503735775.4,286046992.5,P
1503735795.3,286046995.4,P
1503735815.1,286046999.5,N
1503735816.0,286046999.5,N
1503735835.8,286046999.2,N
1503735855.7,286046996.9,N
1503735875.5,286046997.8,N
1503735895.3,286046993.8,N
1503735915.2,286046992.2,P
1503735935.9,286046994.0,N
1503735955.7,286046994.4,P
1503735975.6,286046993.0,P
1503735995.4,286046997.5,P
1503736015.2,286046995.7,N
1503736035.1,286046994.7,P
1503736036.0,286046994.7,P
1503736055.8,286046997.1,P
1503736075.1,286046997.2,N
1503736076.0,286046997.2,N
1503736095.8,286046997.7,N
1503736115.7,286046995.0,P
1503736135.5,286047002.7,P
1503736155.3,286047000.1,N
1503736175.2,286046998.9,N
1503736195.9,286046999.0,N
1503736215.7,286046995.7,N
1503736235.6,286046993.6,N
1503736255.4,286046993.3,N
1503736275.2,286046995.2,N
1503736295.0,286046996.7,N
1503736295.9,286046996.7,N
1503736315.8,286046998.1,N
1503736335.6,286047003.4,N
1503736355.4,286047005.8,N
1503736375.3,286047004.7,N
1503736395.1,286047007.3,N
1503736396.0,286047007.3,N
1503736415.8,286047004.6,N
1503736435.7,286047008.4,N
1503736455.5,286047010.4,N
1503736475.3,286047009.0,N
1503736495.2,286047005.4,N
1503736515.9,286047002.2,N
1503736535.7,286047002.2,N
1503736555.6,286046999.0,N
1503736575.4,286046996.1,N
1503736595.2,286046993.8,N
1503736615.0,286046996.0,N
1503736615.9,286046996.0,N
1503736635.8,286046991.7,N
1503736655.6,286046992.8,N
1503736675.4,286046994.4,N
1503736695.3,286046994.1,N
1503736715.1,286046994.4,N
1503736735.8,286046990.4,N
1503736755.7,286046989.8,N
1503736775.5,286046987.8,N
1503736795.3,286046987.3,N
1503736815.2,286046987.0,N
1503736835.9,286046988.9,N
1503736855.7,286046988.8,N
1503736875.6,286046990.7,N
1503736895.4,286046989.0,N
1503736915.2,286046989.4,N
1503736935.0,286046991.2,N
1503736936.0,286046991.2,N
1503736955.8,286046990.3,N
1503736975.6,286046986.9,N
1503736995.4,286046991.5,N
1503737015.3,286046989.6,N
1503737035.1,286046988.6,N
1503737055.8,286046992.5,N
1503737075.7,286046988.9,N
1503737095.5,286046989.5,N
1503737115.3,286046989.2,P
1503737135.2,286047000.3,N
1503737155.0,286047000.7,N
1503737155.9,286047000.7,N
1503737175.7,286046998.1,N
1503737195.6,286046998.5,N
1503737215.4,286046999.3,N
1503737235.2,286046996.5,N
1503737255.1,286046998.5,N
1503737256.0,286046998.5,N
1503737275.8,286047000.9,N
1503737295.6,286046999.7,N
1503737315.5,286047004.2,N
1503737335.3,286046999.7,N
1503737355.1,286047001.0,N
1503737375.9,286047001.1,N
1503737395.7,286046999.5,N
1503737415.5,286046997.9,N
1503737435.3,286046994.1,N
1503737455.2,286046991.8,N
1503737475.0,286046991.7,N
1503737475.9,286046991.7,N
1503737495.7,286046992.2,N
1503737515.6,286046992.9,N
1503737535.4,286046991.0,N
1503737555.2,286046992.8,N
1503737575.1,286046993.0,N
1503737576.0,286046993.0,N
1503737595.8,286046990.1,N
1503737615.6,286046990.2,N
1503737635.5,286046993.0,N
1503737655.3,286046993.9,N
1503737675.1,286046993.9,N
1503737695.9,286046996.2,N
1503737715.7,286046996.1,N
1503737735.5,286046995.7,N
1503737755.3,286046996.2,N
1503737775.2,286046996.4,N
1503737795.0,286046996.3,N
1503737815.7,286046996.0,N
1503737835.5,286046996.3,N
1503737855.4,286046992.2,N
1503737875.2,286046988.5,P
1503737895.1,286046996.3,N
1503737896.0,286046996.3,N
1503737915.8,286046996.3,N
1503737935.6,286046994.1,N
1503737955.5,286046992.7,N
1503737975.3,286046992.8,N
1503737995.1,286046992.9,N
